Escatawpa, MS

1:12 AM CST on February 07, 2016 (GMT -0600)
Lott International

Weather History for KPQL - February, 2013

Change the Weather History Date:

Monday, February 11, 2013

  Actual Average (KMOB) Record (KMOB)
Temperature  
Mean Temperature 63 °F 53 °F  
Max Temperature 69 °F 64 °F 80 °F (1887)
Min Temperature 57 °F 43 °F 24 °F (1973)
Degree Days  
Heating Degree Days 2 12  
Month to date heating degree days 145  
Since 1 July heating degree days 1266  
Cooling Degree Days 0 0  
Month to date cooling degree days 0  
Year to date cooling degree days 7  
Growing Degree Days 13 (Base 50)    
Moisture  
Dew Point 61 °F    
Average Humidity 92    
Maximum Humidity 100    
Minimum Humidity 77    
Precipitation  
Precipitation 0.36 in 0.18 in 4.00 in (1905)
Month to date precipitation 2.00  
Year to date precipitation 7.65  
Snow  
Snow 0.00 in 0.00 in - ()
Month to date snowfall 0.0  
Since 1 July snowfall T  
Snow Depth -    
Sea Level Pressure  
Sea Level Pressure 30.06 in    
Wind  
Wind Speed 6 mph (NE)    
Max Wind Speed 20 mph    
Max Gust Speed 26 mph    
Visibility 6 miles    
Events Fog , Rain , Thunderstorm    
T = Trace of Precipitation, MM = Missing Value Source: NWS Daily Summary

Daily Weather History Graph

Daily Weather History Graph

Search for Another Location

Airport or City:

Trip Planner

Search our weather history database for the weather conditions in past years. The results will help you decide how hot, cold, wet, or windy it might be!

Date:

Astronomy

Feb. 11, 2013 Rise Set
Actual Time 6:37 AM CST 5:39 PM CST
Civil Twilight 6:13 AM CST 6:04 PM CST
Nautical Twilight 5:44 AM CST 6:32 PM CST
Astronomical Twilight 5:16 AM CST 7:00 PM CST
Moon 7:12 AM CST (2/11) 7:23 PM CST (2/11)
Length of Visible Light 11h 51m
Length of Day
11h 01m
Waxing Crescent, 3% of the Moon is Illuminated
Feb 11
Waxing Crescent
Feb 17
First Quarter
Feb 25
Full
Mar 4
Last Quarter
Mar 11
New

Hourly Weather History & Observations

Time (CST) Temp. Dew Point Humidity Pressure Visibility Wind Dir Wind Speed Gust Speed Precip Events Conditions
12:20 AM 69.8 °F 68.0 °F 94% 30.04 in 7.0 mi SW 5.8 mph - N/A   Overcast
12:29 AM 69.8 °F 68.0 °F 94% 30.04 in 7.0 mi SSW 6.9 mph - N/A   Overcast
12:53 AM 69.1 °F 66.9 °F 93% 30.04 in 6.0 mi SSW 5.8 mph - N/A   Overcast
1:53 AM 69.1 °F 66.9 °F 93% 30.02 in 8.0 mi SSW 6.9 mph - N/A   Overcast
2:53 AM 69.1 °F 66.9 °F 93% 30.03 in 6.0 mi SSW 4.6 mph - N/A   Overcast
3:07 AM 68.0 °F 66.2 °F 94% 30.03 in 6.0 mi WSW 3.5 mph - N/A   Overcast
3:14 AM 68.0 °F 66.2 °F 94% 30.02 in 6.0 mi Calm Calm - N/A   Overcast
3:35 AM 68.0 °F 66.2 °F 94% 30.02 in 5.0 mi Calm Calm - N/A   Overcast
3:53 AM 68.0 °F 66.0 °F 93% 30.02 in 4.0 mi Calm Calm - N/A   Mostly Cloudy
4:04 AM 66.2 °F 64.4 °F 94% 30.01 in 2.5 mi Calm Calm - N/A   Mostly Cloudy
4:10 AM 66.2 °F 64.4 °F 94% 30.01 in 1.5 mi Calm Calm - N/A   Mostly Cloudy
4:23 AM 66.2 °F 64.4 °F 94% 30.00 in 1.5 mi South 3.5 mph - N/A   Overcast
4:32 AM 66.2 °F 64.4 °F 94% 30.00 in 0.5 mi South 3.5 mph - N/A Fog Fog
4:39 AM 66.2 °F 66.2 °F 100% 30.00 in 0.5 mi South 3.5 mph - N/A Fog Fog
4:53 AM 66.9 °F 66.0 °F 97% 30.00 in 0.5 mi SSE 4.6 mph - N/A Fog Fog
5:53 AM 68.0 °F 66.9 °F 96% 30.03 in 0.8 mi Calm Calm - N/A   Mist
6:00 AM 68.0 °F 66.2 °F 94% 30.03 in 1.2 mi Calm Calm - N/A   Overcast
6:40 AM 66.2 °F 66.2 °F 100% 30.05 in 2.5 mi Calm Calm - N/A   Overcast
6:53 AM 66.9 °F 66.0 °F 97% 30.06 in 1.8 mi Calm Calm - N/A   Overcast
6:57 AM 66.2 °F 66.2 °F 100% 30.05 in 2.0 mi South 4.6 mph - N/A   Overcast
7:31 AM 68.0 °F 66.2 °F 94% 30.06 in 3.0 mi South 3.5 mph - N/A   Overcast
7:46 AM 68.0 °F 66.2 °F 94% 30.07 in 2.0 mi South 3.5 mph - N/A   Overcast
7:53 AM 69.1 °F 68.0 °F 96% 30.07 in 2.0 mi Variable 3.5 mph - N/A   Overcast
8:07 AM 68.0 °F 66.2 °F 94% 30.08 in 1.5 mi Calm Calm - N/A   Overcast
8:53 AM 68.0 °F 66.9 °F 96% 30.10 in 1.0 mi Calm Calm - 0.00 in   Overcast
9:07 AM 64.4 °F 62.6 °F 94% 30.10 in 4.0 mi NNW 10.4 mph 21.9 mph N/A   Overcast
9:16 AM 64.4 °F 60.8 °F 88% 30.10 in 10.0 mi North 15.0 mph 21.9 mph N/A   Overcast
9:37 AM 64.4 °F 59.0 °F 83% 30.11 in 10.0 mi North 19.6 mph 26.5 mph N/A   Overcast
9:53 AM 64.0 °F 57.9 °F 80% 30.11 in 10.0 mi North 18.4 mph 24.2 mph N/A   Overcast
10:09 AM 64.4 °F 57.2 °F 77% 30.11 in 10.0 mi North 13.8 mph - N/A   Overcast
10:53 AM 62.1 °F 57.0 °F 84% 30.11 in 10.0 mi North 13.8 mph - 0.06 in   Overcast
11:53 AM 62.1 °F 57.0 °F 84% 30.10 in 10.0 mi North 11.5 mph - 0.00 in   Overcast
12:35 PM 60.8 °F 55.4 °F 82% 30.10 in 4.0 mi Calm Calm - 0.05 in Rain , Thunderstorm Light Thunderstorms and Rain
12:53 PM 60.1 °F 55.9 °F 86% 30.10 in 10.0 mi North 13.8 mph 17.3 mph 0.06 in Rain Light Rain
1:53 PM 59.0 °F 55.9 °F 90% 30.07 in 10.0 mi NNE 11.5 mph - 0.06 in   Overcast
2:41 PM 59.0 °F 55.4 °F 88% 30.07 in 2.0 mi NE 9.2 mph - 0.07 in Rain Rain
2:49 PM 59.0 °F 55.4 °F 88% 30.07 in 7.0 mi NE 11.5 mph - 0.08 in Rain Light Rain
2:53 PM 59.0 °F 55.9 °F 90% 30.08 in 7.0 mi NE 10.4 mph - 0.08 in Rain Light Rain
3:53 PM 59.0 °F 55.9 °F 90% 30.05 in 10.0 mi ENE 10.4 mph 19.6 mph 0.01 in   Overcast
4:53 PM 59.0 °F 55.9 °F 90% 30.04 in 10.0 mi ENE 10.4 mph - N/A   Overcast
5:40 PM 59.0 °F 55.4 °F 88% 30.05 in 10.0 mi NE 8.1 mph - 0.01 in   Overcast
5:53 PM 59.0 °F 55.9 °F 90% 30.06 in 8.0 mi ENE 6.9 mph - 0.02 in Rain Rain
6:53 PM 59.0 °F 55.9 °F 90% 30.07 in 10.0 mi NE 9.2 mph - 0.01 in Rain Light Rain
7:33 PM 57.2 °F 55.4 °F 94% 30.07 in 10.0 mi NE 8.1 mph - 0.00 in   Overcast
7:45 PM 57.2 °F 55.4 °F 94% 30.07 in 10.0 mi ENE 8.1 mph - 0.00 in   Overcast
7:53 PM 57.9 °F 55.0 °F 90% 30.07 in 10.0 mi ENE 6.9 mph - 0.00 in   Overcast
8:15 PM 57.2 °F 55.4 °F 94% 30.07 in 10.0 mi ENE 4.6 mph - N/A   Overcast
8:33 PM 57.2 °F 55.4 °F 94% 30.07 in 10.0 mi North 6.9 mph - N/A   Overcast
8:53 PM 57.9 °F 55.0 °F 90% 30.08 in 10.0 mi NE 6.9 mph - N/A   Overcast
9:53 PM 57.9 °F 55.0 °F 90% 30.06 in 10.0 mi NE 6.9 mph - 0.00 in   Overcast
10:31 PM 57.2 °F 55.4 °F 94% 30.06 in 7.0 mi North 5.8 mph - 0.03 in Rain Light Rain
10:53 PM 57.0 °F 55.9 °F 96% 30.07 in 10.0 mi NNE 5.8 mph - 0.06 in Rain Light Rain
11:53 PM 57.9 °F 55.9 °F 93% 30.06 in 10.0 mi NNE 4.6 mph - 0.00 in   Overcast